| time (UTC) | temp C | wind direction | speed KPH | gust KPH | rain 1hr cm | rain 24hr cm | rain mn cm | humidity % | barometer mb |
| 20260507004206 | 7 | 0.0 | 0.0 | 0.00 | 0.00 | 0.00 | 99 | 1005.9 | |
| 20260507002129 | 7 | 0.0 | 0.0 | 0.00 | 0.00 | 0.00 | 99 | 1005.8 | |
| 20260507000051 | 8 | 0.0 | 0.0 | 0.00 | 0.00 | 0.00 | 99 | 1005.8 | |
| 20260506234014 | 8 | 0.0 | 0.0 | 0.00 | 0.00 | 0.00 | 99 | 1005.7 | |
| 20260506231936 | 8 | 0.0 | 0.0 | 0.00 | 0.00 | 0.00 | 99 | 1005.5 | |
| 20260506225859 | 10 | 0.0 | 0.0 | 0.00 | 0.00 | 0.00 | 99 | 1005.3 | |
| 20260506223820 | 8 | 0.0 | 0.0 | 0.00 | 0.00 | 0.00 | 99 | 1005.4 | |
| 20260506221743 | 9 | 0.0 | 0.0 | 0.00 | 0.00 | 0.00 | 99 | 1005.4 | |
| 20260506215706 | 9 | 0.0 | 0.0 | 0.00 | 0.00 | 0.00 | 99 | 1005.4 | |
| 20260506213630 | 10 | 0.0 | 0.0 | 0.00 | 0.00 | 0.00 | 99 | 1005.2 | |
| 20260506203508 | 9 | 0.0 | 0.0 | 0.00 | 0.00 | 0.00 | 99 | 1004.9 | |
| 20260506201430 | 9 | 0.0 | 0.0 | 0.00 | 0.00 | 0.00 | 99 | 1004.4 | |
| 20260506195353 | 9 | 0.0 | 0.0 | 0.00 | 0.00 | 0.00 | 99 | 1004.2 | |
| 20260506193316 | 9 | 0.0 | 0.0 | 0.00 | 0.00 | 0.00 | 99 | 1003.7 | |
| 20260506191239 | 10 | 0.0 | 0.0 | 0.00 | 0.00 | 0.00 | 99 | 1003.4 | |
| 20260506185202 | 10 | 0.0 | 0.0 | 0.00 | 0.00 | 0.00 | 99 | 1003.1 | |
| 20260506181048 | 10 | 0.0 | 0.0 | 0.00 | 0.00 | 0.00 | 99 | 1002.5 | |
| 20260506175011 | 10 | 0.0 | 0.0 | 0.00 | 0.00 | 0.00 | 99 | 1002.0 | |
| 20260506172934 | 10 | 0.0 | 0.0 | 0.00 | 0.00 | 0.00 | 99 | 1001.6 | |
| 20260506170856 | 11 | 0.0 | 0.0 | 0.00 | 0.00 | 0.00 | 99 | 1001.7 | |
| 20260506164819 | 11 | 0.0 | 0.0 | 0.00 | 0.00 | 0.00 | 99 | 1001.7 | |
| 20260506162744 | 11 | 0.0 | 0.0 | 0.00 | 0.00 | 0.00 | 99 | 1001.5 | |
| 20260506160709 | 12 | 0.0 | 0.0 | 0.00 | 0.00 | 0.00 | 99 | 1001.3 | |
| 20260506154632 | 13 | 0.0 | 0.0 | 0.00 | 0.00 | 0.00 | 96 | 1001.2 | |
| 20260506152556 | 14 | 0.0 | 0.0 | 0.00 | 0.00 | 0.00 | 82 | 1001.3 | |
| 20260506150520 | 15 | 0.0 | 0.0 | 0.00 | 0.00 | 0.00 | 75 | 1001.5 | |
| 20260506144444 | 15 | 0.0 | 0.0 | 0.00 | 0.00 | 0.00 | 74 | 1001.6 | |
| 20260506142407 | 15 | 0.0 | 0.0 | 0.00 | 0.00 | 0.00 | 78 | 1001.4 | |
| 20260506140329 | 15 | 0.0 | 0.0 | 0.00 | 0.00 | 0.00 | 81 | 1001.4 | |
| 20260506132214 | 14 | 0.0 | 0.0 | 0.00 | 0.00 | 0.00 | 87 | 1001.6 | |
| 20260506130136 | 15 | 0.0 | 0.0 | 0.00 | 0.00 | 0.00 | 76 | 1001.8 | |
| 20260506124057 | 15 | 0.0 | 0.0 | 0.00 | 0.00 | 0.00 | 69 | 1001.6 | |
| 20260506122021 | 15 | 0.0 | 0.0 | 0.00 | 0.00 | 0.00 | 68 | 1001.5 | |
| 20260506115945 | 16 | 0.0 | 0.0 | 0.00 | 0.00 | 0.00 | 65 | 1001.7 | |
| 20260506113905 | 15 | 0.0 | 0.0 | 0.00 | 0.00 | 0.00 | 71 | 1001.9 | |
| 20260506111827 | 15 | 0.0 | 0.0 | 0.00 | 0.00 | 0.00 | 80 | 1002.0 | |
| 20260506105748 | 15 | 0.0 | 0.0 | 0.00 | 0.00 | 0.00 | 83 | 1002.2 | |
| 20260506103711 | 14 | 0.0 | 0.0 | 0.00 | 0.00 | 0.00 | 91 | 1002.1 | |
| 20260506101633 | 13 | 0.0 | 0.0 | 0.00 | 0.00 | 0.00 | 98 | 1002.4 | |
| 20260506095555 | 13 | 0.0 | 0.0 | 0.00 | 0.00 | 0.00 | 99 | 1002.2 | |
| 20260506093517 | 13 | 0.0 | 0.0 | 0.00 | 0.00 | 0.00 | 99 | 1002.2 | |
| 20260506091438 | 12 | 0.0 | 0.0 | 0.00 | 0.00 | 0.00 | 99 | 1002.1 | |
| 20260506085401 | 12 | 0.0 | 0.0 | 0.00 | 0.00 | 0.00 | 99 | 1002.1 | |
| 20260506083324 | 12 | 0.0 | 0.0 | 0.00 | 0.00 | 0.00 | 99 | 1002.2 | |
| 20260506081246 | 12 | 0.0 | 0.0 | 0.00 | 0.00 | 0.00 | 99 | 1002.0 | |
| 20260506073132 | 10 | 0.0 | 0.0 | 0.00 | 0.00 | 0.00 | 99 | 1002.4 | |
| 20260506071051 | 8 | 0.0 | 0.0 | 0.00 | 0.00 | 0.00 | 99 | 1002.5 | |
| 20260506060857 | 7 | 0.0 | 0.0 | 0.00 | 0.00 | 0.00 | 99 | 1002.6 | |
| 20260506050702 | 7 | 0.0 | 0.0 | 0.00 | 0.00 | 0.00 | 99 | 1002.8 | |
| 20260506044626 | 7 | 0.0 | 0.0 | 0.00 | 0.00 | 0.00 | 99 | 1003.3 | |
| 20260506042548 | 7 | 0.0 | 0.0 | 0.00 | 0.00 | 0.00 | 99 | 1003.3 | |
| 20260506040511 | 7 | 0.0 | 0.0 | 0.00 | 0.00 | 0.00 | 99 | 1003.7 | |
| 20260506034434 | 7 | 0.0 | 0.0 | 0.00 | 0.00 | 0.00 | 99 | 1003.7 | |
| 20260506032356 | 7 | 0.0 | 0.0 | 0.00 | 0.00 | 0.00 | 99 | 1003.9 | |
| 20260506030319 | 7 | 0.0 | 0.0 | 0.00 | 0.00 | 0.00 | 99 | 1003.9 | |
| 20260506024243 | 7 | 0.0 | 0.0 | 0.00 | 0.00 | 0.00 | 99 | 1003.8 | |
| 20260506022206 | 7 | 0.0 | 0.0 | 0.00 | 0.00 | 0.00 | 99 | 1004.4 | |
| 20260506020128 | 7 | 0.0 | 0.0 | 0.00 | 0.00 | 0.00 | 99 | 1004.6 | |
| 20260506014051 | 7 | 0.0 | 0.0 | 0.00 | 0.00 | 0.00 | 99 | 1004.6 | |
| 20260506012014 | 7 | 0.0 | 0.0 | 0.00 | 0.00 | 0.00 | 99 | 1004.9 |